Regional Weather Roundup
Issued by NWS Wakefield, VA

Home | Current Version | Previous Version | Graphics & Text | Print | Product List | Glossary On
Versions: 1 2 3 4 5 6 7 8 9 10 11 12 13 14 15 16 17 18 19 20 21 22 23 24 25 26 27
000
ASUS41 KAKQ 090015
RWRAKQ

REGIONAL WEATHER ROUNDUP
NATIONAL WEATHER SERVICE WAKEFIELD VA
700 PM EST THU DEC 08 2016

Note: "fair" indicates few or no clouds below 12,000 feet with no
significant weather and/or obstructions to visibility. * = Denotes
station may not report precipitation (e.g., rain,snow,etc.),
thunder or fog.

VAZ042-051-052>054-056-090100-
NORTHERN VIRGINIA

CITY           SKY/WX    TMP DP  RH WIND       PRES   REMARKS
WASH NATIONAL  PTCLDY    42  16  34 NW12      30.12R
DULLES         PTCLDY    38  15  39 NW16G28   30.12R
FORT BELVOIR   PTCLDY    40  14  34 NW13      30.12R
QUANTICO       MOCLDY    41  15  35 N9        30.13R
FREDERICKSBRG* MOCLDY    43  18  37 NW9       30.12R
STAFFORD*      CLOUDY    39  14  36 NW9       30.16R
WARRENTON      PTCLDY    34  11  39 NW3       30.12R
CULPEPER*      PTCLDY    40  14  35 NW9       30.14R
MANASSAS*      NOT AVBL
LEESBURG*      CLEAR     37  21  52 NW13G20   30.13R
WINCHESTER     CLEAR     32  14  47 NW17G25   30.13R WCI  21
FRONT ROYAL*   FAIR      36  14  41 W12G28    30.12R
LURAY*         FAIR      36  18  48 W7        30.12R
$$

VAZ048-049-060>072-079>083-090100-
CENTRAL AND SOUTH CENTRAL VIRGINIA

CITY           SKY/WX    TMP DP  RH WIND       PRES   REMARKS
RICHMOND       CLOUDY    44  19  36 W9        30.12R
CHESTERFIELD*  FAIR      45  12  26 W5        30.14R
PETERSBURG*    MOCLDY    42  20  42 W8        30.14R
HANOVER        PTCLDY    43  21  41 W8        30.13R
TAPPAHANNOCK*  PTCLDY    44  19  36 E5        30.11R
QUINTON*       FAIR      43  22  44 CALM      30.11R
CHARLOTTSVILLE PTCLDY    40  11  30 NW5       30.13R
GORDONSVILLE*  FAIR      40  10  29 W6        30.12R
ORANGE*          N/A     39  14  35 CALM      30.14R
LOUISA*        MOCLDY    43  19  39 W8        30.11R
BUMPASS*       FAIR      38  24  56 CALM      30.12R
FARMVILLE*     CLOUDY    40  27  59 SW3       30.13R
CREWE*         FAIR      41  24  50 CALM      30.14R
FORT PICKETT*  FAIR      41  15  35 W7        30.14R
CHASE CITY*    FAIR      38  25  60 W3        30.16R
CLARKSVILLE*   FAIR      39  23  52 CALM      30.17R
SOUTH HILL*    PTCLDY    41  23  49 W3        30.21R
LAWRENCEVILLE* FAIR      41  21  44 CALM      30.14R
EMPORIA*       PTCLDY    39  23  52 SW3       30.17R
$$

VAZ088>098-090100-
SOUTHEAST VIRGINIA

CITY           SKY/WX    TMP DP  RH WIND       PRES   REMARKS
NORFOLK        PTCLDY    46  39  76 NW5       30.10R
VIRGINIA BEACH PTCLDY    39  36  89 W3        30.09R
NORFOLK NAVAL  NOT AVBL
WEST POINT*    MOCLDY    44  24  45 W5        30.13R
SALUDA*        FAIR      41  28  58 W3        30.09R
NEWPORT NEWS   CLEAR     43  23  45 NW8       30.11R
LANGLEY AFB    PTCLDY    44  29  57 VRB3      30.10R
FORT EUSTIS    CLEAR     45  23  41 NW10      30.09R
WILLIAMSBURG*  PTCLDY    45  27  49 NW6       30.12R
HR EXEC AP*    FAIR      43  30  61 NW5       30.11R
FRANKLIN*      PTCLDY    42  25  51 NW7       30.14R
US460-WAKEFLD  CLEAR     41  25  53 CALM      30.13R
$$

VAZ020-022-025-037-045-090100-
WEST CENTRAL AND SOUTHWEST VIRGINIA

CITY           SKY/WX    TMP DP  RH WIND       PRES   REMARKS
STAUNTON*      CLEAR     32  14  46 NW6       30.15R
WAYNESBORO*    FAIR      33  10  37 NW5       30.12R
HOT SPRINGS VA PTCLDY    25   7  46 W15G31    30.01R WCI  12
LYNCHBURG      PTCLDY    39  11  31 VRB6      30.17R
DANVILLE       PTCLDY    42  16  34 W6        30.18R
SOUTH BOSTON*  FAIR      42  16  35 W6        30.17R
MARTINSVILLE   CLOUDY    40   7  26 N9        30.22R
ROANOKE        PTCLDY    38  11  32 NW15G24   30.19R
BLACKSBURG     CLEAR     33  12  42 W12G23    30.18R WCI  24
DUBLIN*        CLEAR     32  14  47 W9G17     30.18S
MARION*        CLEAR     32  13  45 W18G28    30.19R WCI  20
HILLSVILLE*    CLEAR     30  12  47 NW15G21   30.13R WCI  19
RICHLANDS*     FAIR      29  13  51 NW12G18   30.20R WCI  19
WISE*          CLEAR     30  14  51 W8        30.24R
ABINGDON*      CLEAR     34  11  38 NW8       30.23R
$$

MDZ021>025-VAZ099-100-090100-
SOUTHERN MARYLAND AND THE DELMARVA PENINSULA

CITY           SKY/WX    TMP DP  RH WIND       PRES   REMARKS
PATUXENT RIVER CLOUDY    44  23  43 NW14      30.09R
BAY BRIDGE APT PTCLDY    43  21  42 NW14      30.09R
LEONARDTOWN    MOCLDY    41  21  45 W6        30.10R
DOVER          MOCLDY    41  21  44 W14       30.04R
GEORGETOWN     CLOUDY    42  24  49 W5        30.06R
EASTON         NOT AVBL
CAMBRIDGE      CLOUDY    43  19  39 NW14G20   30.07R
SALISBURY      PTCLDY    42  26  53 W9        30.06R
OCEAN CITY     PTCLDY    39  35  86 W5        30.06R
WALLOPS ISLAND CLEAR     38  37  97 W3        30.08R
ACCOMACK*      PTCLDY    37  37  97 W3        30.09R
$$

NCZ012>017-030>032-090100-
NORTH CENTRAL AND EASTERN NORTH CAROLINA

CITY           SKY/WX    TMP DP  RH WIND       PRES   REMARKS
ROANOKE RAPIDS FAIR      43  27  52 W3        30.16R
RALEIGH        MOCLDY    43  21  41 CALM      30.19R
ELIZABETH CITY MOCLDY    46  34  62 W8        30.11R
AHOSKIE*       CLEAR     44  22  42 CALM      30.15R
EDENTON*       MOCLDY    49  29  44 NW14G20   30.13R
CURRITUCK*     MOCLDY    45  40  81 W7        30.11R
KILL DEVIL HLS MOCLDY    48  42  77 CALM      30.09R
MANTEO         MOCLDY    49  35  57 NW7       30.11R
CAPE HATTERAS  PTCLDY    50  38  63 NW12G22   30.10R
TARBORO*       NOT AVBL
GOLDSBORO      CLOUDY    48  21  34 NW8       30.16R
WASHINGTON     CLOUDY    46  28  49 NW7       30.15R
GREENVILLE     PTCLDY    46  27  46 NW6       30.17R
NEW BERN       PTCLDY    48  26  42 NW7       30.16R
WILMINGTON     CLEAR     48  31  51 N9        30.17R
$$

VAZ048-090100-
ELSEWHERE

CITY           SKY/WX    TMP DP  RH WIND       PRES   REMARKS
HARRISBURG PA  PTCLDY    34  18  52 NW21G29   30.09R WCI  22
BALTIMORE      MOCLDY    38  18  44 NW13      30.09R
ANNAPOLIS      PTCLDY    43  18  36 W8        30.09R
ANDREWS AFB    PTCLDY    40  16  36 W17G24    30.09R
PHILADELPHIA   MOCLDY    40  17  39 NW24G31   30.04R
HENDERSON NC   PTCLDY    38  19  45 W3        30.17R
GREENSBORO     CLOUDY    43  15  32 NW10G20   30.18R
ROCKY MOUNT    MOCLDY    46  22  38 NW7       30.18R
$$

VAZ100-090100-
MARINE

STATION/POSITION TIME  TEMP    WIND        PRES    WAVE   SWELL
                       AIR SEA DIR/SP/G            HT/PER HT/PER
                 (UTC) (F)     (DEG/KT/KT) (MB)    (FT/S) (FT/S)
BRANDYWINE LGT   2348   44     320/ 17/ 24   N/A
CAPE MAY NJ      2348   45 47  300/ 20/ 25 1016.4R
LEWES DE         2348   43 48  270/  8/ 10 1017.1R
OCEAN-CITY-INLET 2348          300/  5/  7   N/A
WACHAPREAGUE VA  2342   40 47  270/  2/  4 1018.6R
THOMAS POINT MD  0000   43 48  300/ 18/ 20   N/A
GOOSES REEF MD   2350   45     310/ 16/ 21 1019.8R
COVE POINT MD    2348   44     330/ 15/ 19 1019.4R
SOLOMONS ISLAND  2348          310/  8/ 12   N/A
BISHOPS HEAD MD  2348   46 46  310/ 15/ 19 1018.8R
PINEY POINT MD   2348          340/ 19/ 20   N/A
POTOMAC MD       2350   47     300/ 16/ 21 1017.9R
CAMBRIDGE MD     2348   45 47  290/ 20/ 25 1017.5R
LEWISETTA VA     2342   45 49  290/  7/  9 1018.6R
RAPPAHANNOCK LGT 2348          300/ 16/ 18 1019.3R
STINGRAY PT      2350   47     320/ 10/ 12 1019.3R
YORK RVR RNG VA  2342   46     320/ 11/ 15 1018.7R
YORKTOWN VA      2342   48 51  310/ 12/ 15 1018.9R
JAMESTOWN VA     2350   47     300/ 12/ 14   N/A
DOMINION TERM VA 2342   49     340/ 12/ 15 1019.4R
KIPTOPEKE VA     2348      52  310/ 11/ 12   N/A
CHES BAY BRIDGE  2342   48 52  320/  7/ 10 1019.0R
CAPE HENRY VA    2342   47     350/  9/ 11   N/A
WILLOUBY STN VA  2342   47     330/ 10/ 12 1020.2R
S CRANEY ISL VA  2342   49     320/ 11/ 17 1018.9R
CAPE HENRY BUOY  2342      54                N/A     3/ 8
CAPE CHARLES BUO 2356      54                N/A     2/ 8
OFFSHORE WE BUOY 2351      55                N/A     3/10   2/11
64NM E OF VA BCH 2350   51 59  330/ 17/ 21 1017.7R   4/ 4   2/ 7
DUCK PIER NC     2342   49 53  310/  5/  6 1018.6R
44100 DUCK FRF   2305      56                N/A     4/ 8   2/11
OREGON INLET NC  2348          300/ 10/ 13   N/A
HATTERAS NC      2342   52 60  310/ 22/ 24 1018.7R
DIAMOND SHLS NC  2350   54 77  320/ 19/ 25 1018.6R   5/ 4   3/ 8
CAPE LOOKOUT NC  2300   52     330/ 13/ 16 1019.6R
$$




USA.gov is the U.S. government's official web portal to all federal, state and local government web resources and services.